Time,TemperatureF,DewpointF,PressureIn,WindDirection,WindDirectionDegrees,WindSpeedMPH,WindSpeedGustMPH,Humidity,HourlyPrecipIn,Conditions,Clouds,dailyrainin,SolarRadiationWatts/m^2,SoftwareType,DateUTC
2013-06-22 00:00:00,75.1,68.5,30.07,ESE,112,0.0,1.0,80,0.00,,OVC013,0.00,0.00,VWS V14.01,2013-06-22 04:00:00,
2013-06-22 00:30:00,74.2,67.3,30.08,ESE,112,0.0,1.0,79,0.00,,OVC013,0.00,0.00,VWS V14.01,2013-06-22 04:30:00,
2013-06-22 01:00:00,73.7,66.4,30.08,East,90,0.0,1.0,78,0.00,,OVC013,0.00,0.00,VWS V14.01,2013-06-22 05:00:00,
2013-06-22 01:30:00,73.0,66.8,30.08,East,90,0.0,0.0,81,0.00,,OVC013,0.00,0.00,VWS V14.01,2013-06-22 05:30:00,
2013-06-22 02:00:00,73.2,68.1,30.07,SE,135,0.0,1.0,84,0.00,,OVC013,0.00,0.00,VWS V14.01,2013-06-22 06:00:00,
2013-06-22 02:30:00,72.7,67.6,30.06,East,90,0.0,1.0,84,0.00,,OVC013,0.00,0.00,VWS V14.01,2013-06-22 06:30:00,
2013-06-22 03:00:00,72.1,67.0,30.06,East,90,0.0,2.0,84,0.00,,OVC013,0.00,0.00,VWS V14.01,2013-06-22 07:00:00,
2013-06-22 03:30:00,70.8,65.7,30.06,ESE,112,0.0,1.0,84,0.00,,OVC013,0.00,0.00,VWS V14.01,2013-06-22 07:30:00,
2013-06-22 04:00:00,70.9,66.8,30.05,ESE,112,0.0,1.0,87,0.00,,OVC013,0.00,0.00,VWS V14.01,2013-06-22 08:00:00,
2013-06-22 04:30:00,70.8,66.7,30.05,ESE,112,0.0,1.0,87,0.00,,OVC013,0.00,0.00,VWS V14.01,2013-06-22 08:30:00,
2013-06-22 05:00:00,70.6,65.9,30.05,SE,135,0.0,1.0,85,0.00,,OVC013,0.00,0.00,VWS V14.01,2013-06-22 09:00:00,
2013-06-22 05:30:00,70.1,65.4,30.05,East,90,0.0,2.0,85,0.00,,OVC013,0.00,0.00,VWS V14.01,2013-06-22 09:30:00,
2013-06-22 06:00:00,70.1,65.7,30.06,NW,315,2.0,6.0,86,0.00,,OVC013,0.00,0.00,VWS V14.01,2013-06-22 10:00:00,
2013-06-22 06:30:00,69.9,65.5,30.06,NW,315,3.0,7.0,86,0.00,,OVC013,0.00,0.00,VWS V14.01,2013-06-22 10:30:00,
2013-06-22 07:00:00,69.6,65.2,30.07,NW,315,2.0,6.0,86,0.00,,OVC013,0.00,0.00,VWS V14.01,2013-06-22 11:00:00,
2013-06-22 07:30:00,68.9,64.6,30.08,NW,315,3.0,7.0,86,0.00,,OVC013,0.00,3.00,VWS V14.01,2013-06-22 11:30:00,
2013-06-22 08:00:00,69.1,64.1,30.08,NW,315,3.0,7.0,84,0.00,,OVC013,0.00,38.00,VWS V14.01,2013-06-22 12:00:00,
2013-06-22 08:30:00,70.3,65.6,30.08,NNW,338,3.0,9.0,85,0.00,,OVC013,0.00,115.00,VWS V14.01,2013-06-22 12:30:00,
2013-06-22 09:00:00,71.5,63.5,30.07,ENE,68,4.0,6.0,76,0.00,,OVC013,0.00,198.00,VWS V14.01,2013-06-22 13:00:00,
2013-06-22 09:30:00,74.4,64.8,30.08,ENE,68,2.0,6.0,72,0.00,,OVC013,0.00,287.00,VWS V14.01,2013-06-22 13:30:00,
2013-06-22 10:00:00,76.5,64.7,30.09,NNE,22,3.0,9.0,67,0.00,,OVC013,0.00,380.00,VWS V14.01,2013-06-22 14:00:00,
2013-06-22 10:30:00,75.8,62.3,30.10,NNE,22,4.0,10.0,63,0.00,,OVC013,0.00,467.00,VWS V14.01,2013-06-22 14:30:00,
2013-06-22 11:00:00,76.8,64.2,30.10,NE,45,6.0,12.0,65,0.00,,OVC013,0.00,561.00,VWS V14.01,2013-06-22 15:00:00,
2013-06-22 11:30:00,76.1,62.6,30.10,NE,45,5.0,10.0,63,0.00,,OVC013,0.00,647.00,VWS V14.01,2013-06-22 15:30:00,
2013-06-22 12:00:00,77.9,62.9,30.10,NNE,22,4.0,9.0,60,0.00,,OVC013,0.00,746.00,VWS V14.01,2013-06-22 16:00:00,
2013-06-22 12:30:00,77.4,60.5,30.10,NE,45,6.0,12.0,56,0.00,,OVC013,0.00,791.00,VWS V14.01,2013-06-22 16:30:00,
2013-06-22 13:00:00,78.1,60.6,30.10,ENE,68,3.0,8.0,55,0.00,,OVC013,0.00,839.00,VWS V14.01,2013-06-22 17:00:00,
2013-06-22 13:30:00,79.2,60.6,30.09,ESE,112,2.0,9.0,53,0.00,,OVC013,0.00,824.00,VWS V14.01,2013-06-22 17:30:00,
2013-06-22 14:00:00,79.4,60.3,30.08,NE,45,0.0,4.0,52,0.00,,OVC013,0.00,928.00,VWS V14.01,2013-06-22 18:00:00,
2013-06-22 14:30:00,81.2,61.4,30.08,NE,45,0.0,1.0,51,0.00,,OVC013,0.00,930.00,VWS V14.01,2013-06-22 18:30:00,
2013-06-22 15:00:00,82.0,61.0,30.06,ESE,112,0.0,1.0,49,0.00,,OVC013,0.00,854.00,VWS V14.01,2013-06-22 19:00:00,
2013-06-22 15:30:00,82.8,60.5,30.05,NE,45,0.0,3.0,47,0.00,,OVC013,0.00,942.00,VWS V14.01,2013-06-22 19:30:00,
2013-06-22 16:00:00,83.8,63.2,30.04,NNE,22,1.0,4.0,50,0.00,,OVC013,0.00,916.00,VWS V14.01,2013-06-22 20:00:00,
2013-06-22 16:30:00,84.0,62.8,30.03,ESE,112,0.0,4.0,49,0.00,,OVC013,0.00,875.00,VWS V14.01,2013-06-22 20:30:00,
2013-06-22 17:00:00,84.1,59.9,30.01,SE,135,1.0,5.0,44,0.00,,OVC013,0.00,827.00,VWS V14.01,2013-06-22 21:00:00,
2013-06-22 17:30:00,84.3,61.9,30.00,East,90,0.0,3.0,47,0.00,,OVC013,0.00,767.00,VWS V14.01,2013-06-22 21:30:00,
2013-06-22 18:00:00,85.9,60.8,29.99,ESE,112,0.0,4.0,43,0.00,,OVC013,0.00,697.00,VWS V14.01,2013-06-22 22:00:00,
2013-06-22 18:30:00,86.1,59.7,29.98,ESE,112,0.0,3.0,41,0.00,,OVC065,0.00,619.00,VWS V14.01,2013-06-22 22:30:00,
2013-06-22 18:37:00,84.1,61.1,29.98,West,270,1.0,6.0,46,0.00,,OVC013,0.00,528.00,VWS V14.01,2013-06-22 22:37:00,
2013-06-22 18:42:00,86.5,62.0,29.98,East,100,0.0,1.0,44,0.00,,CLR,0.00,350.00,VWS V14.01,2013-06-22 22:42:00,
2013-06-22 18:47:00,86.1,60.3,29.98,ESE,112,0.0,4.0,42,0.00,,CLR,0.00,332.00,VWS V14.01,2013-06-22 22:47:00,
2013-06-22 18:52:00,85.5,59.1,29.98,ESE,105,0.0,4.0,41,0.00,,CLR,0.00,316.00,VWS V14.01,2013-06-22 22:52:00,
2013-06-22 18:57:00,85.5,60.5,29.98,ESE,105,0.0,4.0,43,0.00,,CLR,0.00,301.00,VWS V14.01,2013-06-22 22:57:00,
2013-06-22 19:00:00,84.1,61.1,29.98,West,270,1.0,6.0,46,0.00,,OVC065,0.00,528.00,VWS V14.01,2013-06-22 23:00:00,
2013-06-22 19:02:00,85.5,61.8,29.98,ESE,103,0.0,0.0,45,0.00,,CLR,0.00,288.00,VWS V14.01,2013-06-22 23:02:00,
2013-06-22 19:07:00,85.7,61.9,29.98,East,97,0.0,0.0,45,0.00,,CLR,0.00,272.00,VWS V14.01,2013-06-22 23:07:00,
2013-06-22 19:12:00,86.1,59.0,29.98,East,92,0.0,1.0,40,0.00,,CLR,0.00,257.00,VWS V14.01,2013-06-22 23:12:00,
2013-06-22 19:17:00,86.3,60.5,29.97,East,86,0.0,1.0,42,0.00,,CLR,0.00,239.00,VWS V14.01,2013-06-22 23:17:00,
2013-06-22 19:22:00,86.5,68.4,29.97,NE,36,0.0,2.0,55,0.00,,CLR,0.00,225.00,VWS V14.01,2013-06-22 23:22:00,
2013-06-22 19:27:00,85.7,61.3,29.97,NNE,24,2.0,2.0,44,0.00,,CLR,0.00,207.00,VWS V14.01,2013-06-22 23:27:00,
2013-06-22 19:30:00,86.1,59.7,29.98,ESE,112,0.0,3.0,41,0.00,,CLR,0.00,619.00,VWS V14.01,2013-06-22 23:30:00,
2013-06-22 19:32:00,84.3,67.9,29.97,WNW,303,1.0,3.0,58,0.00,,CLR,0.00,192.00,VWS V14.01,2013-06-22 23:32:00,
2013-06-22 19:37:00,83.4,66.6,29.97,WNW,301,0.0,3.0,57,0.00,,CLR,0.00,178.00,VWS V14.01,2013-06-22 23:37:00,
2013-06-22 19:42:00,82.4,66.7,29.97,WNW,288,1.0,3.0,59,0.00,,CLR,0.00,163.00,VWS V14.01,2013-06-22 23:42:00,
2013-06-22 19:47:00,81.4,67.1,29.98,WNW,282,1.0,3.0,62,0.00,,CLR,0.00,146.00,VWS V14.01,2013-06-22 23:47:00,
2013-06-22 19:52:00,80.7,67.4,29.98,West,279,0.0,3.0,64,0.00,,CLR,0.00,130.00,VWS V14.01,2013-06-22 23:52:00,
2013-06-22 19:57:00,79.9,67.5,29.98,West,276,0.0,4.0,66,0.00,,CLR,0.00,116.00,VWS V14.01,2013-06-22 23:57:00,
2013-06-22 20:00:00,85.5,60.5,29.98,ESE,111,0.0,4.0,43,0.00,,OVC065,0.00,290.00,VWS V14.01,2013-06-23 00:00:00,
2013-06-22 20:02:00,79.6,67.2,29.98,West,274,0.0,1.0,66,0.00,,CLR,0.00,98.00,VWS V14.01,2013-06-23 00:02:00,
2013-06-22 20:07:00,79.6,68.1,29.98,West,273,0.0,2.0,68,0.00,,CLR,0.00,83.00,VWS V14.01,2013-06-23 00:07:00,
2013-06-22 20:12:00,79.4,66.6,29.98,West,275,1.0,3.0,65,0.00,,CLR,0.00,70.00,VWS V14.01,2013-06-23 00:12:00,
2013-06-22 20:17:00,79.2,66.4,29.98,West,270,0.0,3.0,65,0.00,,CLR,0.00,40.00,VWS V14.01,2013-06-23 00:17:00,
2013-06-22 20:22:00,79.0,66.7,29.98,WSW,253,0.0,3.0,66,0.00,,CLR,0.00,16.00,VWS V14.01,2013-06-23 00:22:00,
2013-06-22 20:27:00,78.8,66.9,29.98,WSW,239,0.0,3.0,67,0.00,,CLR,0.00,11.00,VWS V14.01,2013-06-23 00:27:00,
2013-06-22 20:30:00,84.9,67.5,29.97,WNW,303,1.0,4.0,56,0.00,,OVC065,0.00,199.00,VWS V14.01,2013-06-23 00:30:00,
2013-06-22 20:32:00,78.3,66.0,29.97,SW,230,0.0,0.0,66,0.00,,CLR,0.00,9.00,VWS V14.01,2013-06-23 00:32:00,
2013-06-22 20:37:00,77.9,66.9,29.97,SW,224,0.0,0.0,69,0.00,,CLR,0.00,7.00,VWS V14.01,2013-06-23 00:37:00,
2013-06-22 20:42:00,77.6,66.6,29.97,SW,221,0.0,1.0,69,0.00,,CLR,0.00,5.00,VWS V14.01,2013-06-23 00:42:00,
2013-06-22 20:47:00,77.2,67.1,29.98,SW,218,0.0,1.0,71,0.00,,CLR,0.00,0.00,VWS V14.01,2013-06-23 00:47:00,
2013-06-22 20:52:00,77.0,67.3,29.98,SSW,205,0.0,1.0,72,0.00,,CLR,0.00,0.00,VWS V14.01,2013-06-23 00:52:00,
2013-06-22 20:57:00,76.8,65.9,29.98,WSW,240,0.0,2.0,69,0.00,,CLR,0.00,0.00,VWS V14.01,2013-06-23 00:57:00,
2013-06-22 21:00:00,79.8,67.4,29.98,West,279,0.0,4.0,66,0.00,,OVC065,0.00,104.00,VWS V14.01,2013-06-23 01:00:00,
2013-06-22 21:02:00,76.7,66.6,29.99,West,265,0.0,0.0,71,0.00,,CLR,0.00,0.00,VWS V14.01,2013-06-23 01:02:00,
2013-06-22 21:07:00,76.5,67.2,29.99,WSW,240,0.0,1.0,73,0.00,,CLR,0.00,0.00,VWS V14.01,2013-06-23 01:07:00,
2013-06-22 21:12:00,76.3,67.8,29.99,WSW,244,0.0,1.0,75,0.00,,CLR,0.00,0.00,VWS V14.01,2013-06-23 01:12:00,
2013-06-22 21:17:00,76.1,67.6,30.00,WSW,247,0.0,2.0,75,0.00,,CLR,0.00,0.00,VWS V14.01,2013-06-23 01:17:00,
2013-06-22 21:22:00,76.0,67.5,30.00,West,263,0.0,2.0,75,0.00,,CLR,0.00,0.00,VWS V14.01,2013-06-23 01:22:00,
2013-06-22 21:27:00,75.8,66.5,30.00,West,259,0.0,2.0,73,0.00,,CLR,0.00,0.00,VWS V14.01,2013-06-23 01:27:00,
2013-06-22 21:30:00,78.5,66.6,29.97,SW,232,0.0,3.0,67,0.00,,OVC065,0.00,9.00,VWS V14.01,2013-06-23 01:30:00,
2013-06-22 21:32:00,75.4,66.2,30.00,WSW,258,0.0,0.0,73,0.00,,CLR,0.00,0.00,VWS V14.01,2013-06-23 01:32:00,
2013-06-22 21:37:00,75.4,66.2,30.00,WSW,248,0.0,0.0,73,0.00,,CLR,0.00,0.00,VWS V14.01,2013-06-23 01:37:00,
2013-06-22 21:42:00,75.4,66.9,30.00,WSW,245,0.0,0.0,75,0.00,,CLR,0.00,0.00,VWS V14.01,2013-06-23 01:42:00,
2013-06-22 21:47:00,75.4,66.9,30.00,WSW,245,0.0,0.0,75,0.00,,CLR,0.00,0.00,VWS V14.01,2013-06-23 01:47:00,
2013-06-22 21:52:00,75.3,66.8,30.00,WSW,248,0.0,0.0,75,0.00,,CLR,0.00,0.00,VWS V14.01,2013-06-23 01:52:00,
2013-06-22 21:57:00,75.1,67.0,30.00,West,264,0.0,0.0,76,0.00,,CLR,0.00,0.00,VWS V14.01,2013-06-23 01:57:00,
2013-06-22 22:00:00,76.7,65.8,29.99,West,266,0.0,2.0,69,0.00,,OVC065,0.00,0.00,VWS V14.01,2013-06-23 02:00:00,
2013-06-22 22:02:00,74.9,66.1,30.00,West,261,0.0,0.0,74,0.00,,CLR,0.00,0.00,VWS V14.01,2013-06-23 02:02:00,
2013-06-22 22:07:00,74.7,67.0,30.00,West,262,0.0,0.0,77,0.00,,CLR,0.00,0.00,VWS V14.01,2013-06-23 02:07:00,
2013-06-22 22:12:00,74.9,67.6,30.00,West,273,0.0,0.0,78,0.00,,CLR,0.00,0.00,VWS V14.01,2013-06-23 02:12:00,
2013-06-22 22:17:00,74.7,67.8,30.01,WSW,257,0.0,0.0,79,0.00,,CLR,0.00,0.00,VWS V14.01,2013-06-23 02:17:00,
2013-06-22 22:22:00,74.6,68.0,30.01,WSW,248,0.0,0.0,80,0.00,,CLR,0.00,0.00,VWS V14.01,2013-06-23 02:22:00,
2013-06-22 22:27:00,74.7,68.8,30.01,WSW,250,0.0,0.0,82,0.00,,CLR,0.00,0.00,VWS V14.01,2013-06-23 02:27:00,
2013-06-22 22:30:00,75.6,66.3,30.00,West,259,0.0,2.0,73,0.00,,OVC065,0.00,0.00,VWS V14.01,2013-06-23 02:30:00,
2013-06-22 22:32:00,74.7,68.5,30.01,West,275,0.0,0.0,81,0.00,,CLR,0.00,0.00,VWS V14.01,2013-06-23 02:32:00,
2013-06-22 22:37:00,74.9,68.7,30.01,NW,312,0.0,0.0,81,0.00,,CLR,0.00,0.00,VWS V14.01,2013-06-23 02:37:00,
2013-06-22 22:42:00,75.1,68.9,30.01,WNW,288,0.0,0.0,81,0.00,,CLR,0.00,0.00,VWS V14.01,2013-06-23 02:42:00,
2013-06-22 22:47:00,74.9,67.6,30.02,NW,317,0.0,0.0,78,0.00,,CLR,0.00,0.00,VWS V14.01,2013-06-23 02:47:00,
2013-06-22 22:52:00,74.9,66.4,30.02,NW,319,0.0,0.0,75,0.00,,CLR,0.00,0.00,VWS V14.01,2013-06-23 02:52:00,
2013-06-22 22:57:00,74.9,66.4,30.02,WNW,299,0.0,0.0,75,0.00,,CLR,0.00,0.00,VWS V14.01,2013-06-23 02:57:00,
2013-06-22 23:00:00,74.9,66.1,30.00,West,265,0.0,0.0,74,0.00,,OVC065,0.00,0.00,VWS V14.01,2013-06-23 03:00:00,
2013-06-22 23:02:00,74.7,66.6,30.02,NW,306,0.0,0.0,76,0.00,,FEW110,0.00,0.00,VWS V14.01,2013-06-23 03:02:00,
2013-06-22 23:07:00,74.6,66.9,30.02,WNW,298,0.0,0.0,77,0.00,,FEW110,0.00,0.00,VWS V14.01,2013-06-23 03:07:00,
2013-06-22 23:12:00,74.4,66.7,30.02,NNW,331,0.0,0.0,77,0.00,,FEW110,0.00,0.00,VWS V14.01,2013-06-23 03:12:00,
2013-06-22 23:17:00,74.4,67.1,30.02,NW,317,0.0,0.0,78,0.00,,FEW110,0.00,0.00,VWS V14.01,2013-06-23 03:17:00,
2013-06-22 23:22:00,74.4,67.1,30.02,NW,322,0.0,0.0,78,0.00,,FEW110,0.00,0.00,VWS V14.01,2013-06-23 03:22:00,
2013-06-22 23:27:00,74.2,66.9,30.02,NW,311,0.0,0.0,78,0.00,,FEW110,0.00,0.00,VWS V14.01,2013-06-23 03:27:00,
2013-06-22 23:30:00,74.7,68.5,30.01,West,279,0.0,0.0,81,0.00,,OVC065,0.00,0.00,VWS V14.01,2013-06-23 03:30:00,
2013-06-22 23:32:00,74.0,67.1,30.03,WNW,303,0.0,0.0,79,0.00,,FEW110,0.00,0.00,VWS V14.01,2013-06-23 03:32:00,
2013-06-22 23:37:00,73.9,66.6,30.03,WNW,302,0.0,0.0,78,0.00,,FEW110,0.00,0.00,VWS V14.01,2013-06-23 03:37:00,
2013-06-22 23:42:00,73.9,67.0,30.03,WNW,299,0.0,0.0,79,0.00,,FEW110,0.00,0.00,VWS V14.01,2013-06-23 03:42:00,
2013-06-22 23:47:00,73.7,66.8,30.03,WNW,298,0.0,0.0,79,0.00,,FEW110,0.00,0.00,VWS V14.01,2013-06-23 03:47:00,
2013-06-22 23:52:00,73.7,66.8,30.03,NNW,329,0.0,0.0,79,0.00,,FEW110,0.00,0.00,VWS V14.01,2013-06-23 03:52:00,
2013-06-22 23:57:00,73.7,66.8,30.03,NW,321,0.0,2.0,79,0.00,,FEW110,0.00,0.00,VWS V14.01,2013-06-23 03:57:00,